Wind_Speed
40 40 40 41 42 42 43 43 43 43 44 45 46 47 48 49 50 50 51 53 56 58 61 63 64 65 65 65 65 65 64 63 61 60 60 61 62 62 62 63 64 66
36 37 38 39 40 41 42 42 43 44 45 46 47 49 50 50 51 52 54 56 59 61 62 64 64 64 65 65 65 64 62 61 60 60 60 61 61 62 63 64 66 68
36 37 38 39 41 42 42 43 44 45 47 48 48 49 50 51 52 54 56 58 60 61 62 63 64 65 65 65 64 62 61 60 60 60 61 61 62 63 65 67 69 70
38 39 40 41 42 43 44 44 45 46 47 48 48 49 50 52 54 56 58 60 61 62 63 64 65 66 65 64 62 61 60 60 60 61 62 63 65 66 68 69 70 70
39 40 41 42 43 44 45 45 46 46 47 48 49 50 52 54 56 58 59 60 61 63 64 65 66 65 64 62 61 61 61 61 62 63 64 65 67 68 69 70 70 70
40 42 43 44 45 46 47 47 48 48 48 49 51 52 54 56 57 59 60 61 63 64 65 65 64 63 62 62 62 62 62 62 63 64 65 67 68 69 69 69 69 69
42 43 44 46 47 48 49 49 50 50 50 51 53 54 55 57 58 60 61 62 63 64 64 64 64 63 63 63 62 63 63 63 64 65 67 68 68 68 68 68 68 68
44 45 46 48 48 49 50 50 51 52 53 54 55 56 58 59 60 61 62 63 64 64 64 64 64 64 63 63 62 62 63 63 65 66 67 68 68 67 67 67 68 68
47 48 49 50 51 51 51 52 53 54 55 56 57 58 60 61 62 62 63 64 64 64 64 64 64 63 62 61 62 62 63 64 66 67 67 67 67 66 67 67 68 69
50 51 51 52 53 53 54 54 55 56 57 58 59 60 61 62 62 63 63 64 64 63 63 63 62 61 60 61 62 63 64 65 66 66 66 66 66 67 67 68 68 69
51 52 53 54 55 55 56 56 57 58 59 60 60 61 61 62 62 63 63 62 62 62 61 61 60 59 60 61 63 64 65 66 66 66 66 66 67 67 68 68 69 69
52 53 54 55 56 57 57 58 59 60 60 61 61 61 61 61 61 61 61 60 60 60 59 58 58 59 61 63 64 65 65 65 65 66 66 67 67 68 68 69 69 68
53 54 55 56 57 58 58 59 60 60 60 60 60 60 60 59 59 58 58 58 58 57 57 57 59 61 62 64 64 64 64 65 66 66 67 67 67 67 68 68 68 68
55 56 57 57 57 58 59 59 59 59 59 59 59 58 57 56 56 56 55 56 56 56 57 58 60 62 63 63 64 64 65 66 66 66 66 66 66 66 66 66 67 68
56 57 57 57 57 58 58 58 58 58 58 57 56 55 53 53 53 53 54 55 56 57 59 60 61 62 63 63 64 65 66 65 65 65 65 65 65 65 65 66 66 67
53 55 55 56 56 56 56 56 56 56 56 54 53 51 50 50 51 52 54 56 58 59 60 61 62 63 63 64 65 65 65 64 64 64 64 64 64 64 64 65 66 68
51 52 53 54 54 54 55 54 54 54 53 51 50 49 49 50 52 53 56 58 59 61 61 62 63 64 64 64 64 64 63 62 62 62 62 62 62 63 64 65 67 69
48 49 50 51 51 52 52 51 50 50 50 49 48 48 49 51 53 55 57 59 61 62 62 63 63 64 64 63 62 61 61 61 61 60 60 61 61 63 64 66 68 70
47 48 49 49 49 49 48 48 48 49 49 48 48 49 50 52 54 56 58 60 62 62 62 62 62 63 62 61 59 59 59 58 58 58 59 60 62 63 65 67 69 70
48 48 48 48 48 48 48 48 48 48 48 48 49 50 52 53 55 58 59 61 62 62 61 61 61 60 59 58 57 57 57 56 57 58 59 61 62 64 66 68 69 70
47 47 48 48 48 47 47 47 47 47 48 49 50 51 53 54 56 58 59 60 61 61 60 59 58 57 56 55 55 55 55 56 57 59 60 62 63 65 66 68 69 71
44 45 45 45 46 45 46 47 47 47 48 49 50 52 54 56 57 58 59 60 60 59 58 56 55 54 54 54 54 54 55 56 58 60 61 63 64 65 67 68 70 71
42 41 42 45 47 47 47 47 48 48 50 51 52 54 56 56 57 57 58 58 58 57 55 54 54 53 53 54 54 54 56 58 59 61 62 64 65 66 67 68 70 71
39 38 40 44 47 47 47 47 48 50 52 53 54 55 56 57 56 56 56 56 56 55 54 54 53 53 54 55 55 55 57 59 61 62 64 65 65 66 68 69 70 71
36 36 39 43 48 50 50 50 50 52 53 54 54 56 56 56 55 54 55 55 55 55 54 54 54 54 55 56 56 57 59 61 63 64 65 65 66 67 68 69 70 71
40 40 43 48 52 54 54 53 52 53 54 56 56 56 55 53 53 53 54 55 55 55 55 55 55 56 57 57 57 59 61 63 64 65 66 66 67 67 68 69 69 71
Wind_Direction
271 269 268 267 267 267 268 270 272 274 276 278 280 282 284 286 288 291 293 295 296 297 298 299 300 302 303 305 306 306 305 305 305 304 304 304 304 305 305 306 307 307
269 268 267 267 267 268 270 272 274 276 278 280 282 283 285 287 290 292 294 295 296 297 298 299 301 302 304 305 305 304 304 304 305 305 305 305 305 305 306 307 307 307
266 266 267 268 269 270 272 273 275 278 280 281 283 285 287 290 292 293 294 295 296 297 299 300 302 302 303 303 304 304 304 305 305 305 305 305 305 306 307 307 307 307
264 266 268 269 271 272 273 275 277 279 281 283 285 287 289 290 292 293 294 295 297 298 300 300 301 301 302 303 303 304 305 305 305 305 305 305 306 307 308 308 307 307
265 268 269 271 272 274 275 277 279 280 283 285 286 288 289 290 291 293 294 296 297 298 299 299 300 301 302 303 304 305 305 305 305 305 305 306 307 308 308 308 307 307
268 269 271 272 273 274 276 278 280 282 284 286 287 288 290 291 293 294 295 296 297 298 298 299 300 301 303 304 304 304 305 305 305 305 306 307 308 309 308 308 307 307
268 270 271 272 273 275 276 278 281 283 285 287 288 289 291 293 294 295 296 297 297 298 299 300 301 303 303 304 304 304 304 304 305 306 307 308 309 309 308 308 307 307
268 269 271 273 275 276 278 280 282 284 286 288 290 291 293 294 295 296 297 298 298 299 300 301 302 303 304 304 303 303 304 305 306 307 308 309 309 308 308 307 307 307
268 270 272 274 276 278 280 282 284 285 287 289 291 293 295 296 296 297 298 298 299 300 301 302 302 303 303 303 303 304 305 307 308 308 308 308 308 308 308 308 308 308
270 272 274 276 277 279 281 283 285 287 289 290 292 294 295 297 297 298 298 299 300 300 300 301 302 303 303 303 304 305 307 308 308 308 308 308 308 308 308 308 308 308
270 273 275 276 278 280 282 284 286 288 289 291 292 294 295 296 297 297 298 299 299 299 300 302 303 303 303 304 306 307 308 309 309 308 308 308 308 308 308 308 309 309
270 272 274 276 278 280 282 284 286 288 289 291 292 294 295 296 297 298 298 298 298 299 301 302 303 303 304 306 307 308 309 309 309 308 309 309 309 309 309 309 309 310
271 272 274 276 278 280 282 284 286 288 289 291 293 294 295 296 297 297 297 298 298 300 301 302 303 304 305 307 308 308 309 309 309 309 309 309 309 309 309 310 310 311
273 274 275 277 279 281 283 285 286 288 290 291 293 295 296 296 296 296 296 297 298 300 301 302 303 305 306 307 308 309 309 309 309 310 309 309 309 310 310 311 311 312
275 276 277 279 281 282 284 285 287 288 290 292 293 294 295 294 294 295 296 297 298 300 301 303 304 305 306 307 308 309 310 310 310 310 310 310 310 311 311 312 313 313
276 278 280 281 282 283 284 286 287 288 290 291 292 293 292 292 293 294 295 296 298 300 302 303 304 305 306 307 308 309 310 310 310 310 310 311 311 312 313 313 314 315
277 279 281 282 282 283 285 286 287 288 289 290 291 291 291 291 293 294 295 296 298 300 302 303 304 305 306 307 309 309 310 310 310 311 311 312 312 313 314 315 316 316
278 279 280 281 282 284 285 286 287 287 288 289 290 290 290 291 293 294 295 297 298 300 302 303 304 305 307 308 309 309 310 310 311 312 312 313 314 314 315 316 317 317
279 279 280 282 283 284 285 286 286 286 288 288 289 289 290 291 293 294 296 297 299 300 302 303 305 306 307 308 309 310 310 311 312 312 313 314 314 315 316 317 318 318
278 279 280 281 282 283 284 284 285 286 287 287 287 289 290 292 294 295 296 297 299 300 302 304 305 306 307 308 309 310 311 312 312 313 313 314 315 316 317 318 319 320
278 279 281 282 282 283 283 283 283 285 285 286 287 289 291 293 295 296 296 297 299 301 303 305 306 307 308 308 309 311 312 312 313 313 314 315 316 317 318 319 320 321
280 281 283 284 283 283 283 283 284 284 283 285 287 289 291 294 295 296 296 298 300 302 304 306 306 307 308 309 310 311 312 313 313 314 314 315 316 317 318 320 320 321
282 284 286 286 284 283 283 283 284 283 283 285 288 290 292 294 295 296 297 299 301 303 305 306 307 307 308 309 310 311 312 313 313 314 315 316 317 317 319 320 321 322
284 287 287 285 283 282 282 282 282 283 283 285 288 291 293 295 295 297 299 300 302 303 305 306 306 306 308 309 309 310 311 313 314 315 316 316 317 317 319 320 321 322
276 280 281 279 279 280 280 280 282 284 284 286 289 292 294 295 296 298 300 301 302 303 304 305 305 305 307 308 309 309 311 312 314 315 316 316 316 317 318 319 321 322
265 267 270 273 276 277 278 279 282 284 285 287 290 293 294 295 296 299 300 301 302 302 303 303 304 304 305 307 308 309 310 312 313 315 315 315 316 317 317 319 321 321
Height
10693 10693 10693 10693 10693 10693 10693 10694 10693 10693 10692 10692 10691 10690 10689 10688 10687 10686 10684 10683 10682 10680 10678 10677 10675 10673 10671 10668 10666 10662 10660 10657 10653 10650 10646 10642 10638 10634 10630 10626 10622 10617
10690 10689 10689 10689 10689 10688 10689 10689 10689 10688 10688 10687 10686 10684 10683 10683 10682 10681 10679 10678 10676 10674 10672 10671 10669 10667 10665 10662 10659 10656 10654 10651 10647 10643 10639 10635 10632 10628 10624 10620 10616 10611
10686 10686 10685 10685 10684 10684 10684 10684 10684 10684 10683 10682 10680 10679 10678 10677 10676 10675 10674 10672 10670 10668 10666 10664 10663 10661 10659 10656 10653 10650 10647 10644 10641 10637 10633 10629 10625 10622 10618 10614 10609 10604
10682 10682 10681 10680 10679 10679 10679 10679 10679 10679 10678 10676 10675 10674 10673 10672 10671 10670 10668 10667 10665 10662 10660 10658 10657 10655 10653 10650 10647 10643 10641 10638 10634 10630 10626 10622 10619 10615 10611 10606 10602 10597
10677 10677 10676 10675 10674 10674 10674 10674 10674 10674 10673 10671 10670 10669 10668 10667 10666 10664 10663 10661 10659 10657 10655 10653 10651 10649 10646 10643 10640 10637 10634 10631 10627 10623 10619 10615 10612 10608 10603 10599 10595 10590
10672 10672 10671 10671 10670 10669 10669 10669 10669 10669 10667 10666 10665 10664 10663 10662 10660 10659 10657 10655 10653 10651 10649 10647 10645 10642 10640 10636 10633 10630 10627 10624 10621 10616 10612 10609 10604 10600 10596 10591 10587 10583
10668 10667 10667 10666 10665 10665 10665 10665 10664 10663 10662 10661 10659 10658 10657 10656 10654 10652 10651 10649 10647 10645 10642 10640 10638 10635 10632 10629 10626 10623 10621 10618 10614 10610 10605 10601 10597 10593 10588 10584 10580 10576
10663 10663 10662 10661 10661 10660 10660 10659 10659 10658 10657 10655 10654 10653 10651 10650 10648 10646 10644 10642 10640 10638 10635 10633 10630 10628 10625 10622 10619 10616 10614 10611 10607 10603 10598 10594 10590 10586 10581 10577 10573 10569
10658 10657 10656 10656 10655 10655 10654 10654 10653 10653 10651 10650 10649 10647 10646 10644 10642 10640 10638 10636 10633 10631 10628 10626 10623 10621 10619 10616 10613 10610 10607 10604 10600 10595 10591 10587 10583 10579 10575 10570 10566 10562
10652 10652 10651 10650 10649 10649 10649 10648 10648 10647 10645 10644 10643 10642 10639 10637 10635 10633 10631 10629 10626 10624 10621 10619 10617 10615 10612 10609 10606 10603 10601 10597 10592 10588 10584 10580 10576 10572 10568 10563 10559 10555
10647 10646 10645 10644 10644 10644 10643 10642 10642 10640 10639 10638 10637 10636 10634 10631 10629 10627 10625 10622 10620 10617 10615 10613 10611 10608 10605 10603 10600 10597 10594 10590 10586 10581 10578 10574 10569 10565 10561 10557 10552 10548
10641 10640 10639 10639 10638 10638 10637 10637 10636 10634 10633 10632 10631 10630 10628 10625 10622 10620 10618 10615 10613 10611 10609 10607 10605 10602 10599 10596 10593 10590 10587 10583 10579 10575 10571 10567 10563 10558 10554 10550 10545 10541
10635 10634 10634 10634 10633 10632 10632 10631 10630 10628 10627 10626 10625 10624 10621 10618 10616 10613 10611 10609 10607 10605 10603 10601 10599 10596 10593 10590 10587 10584 10581 10577 10573 10569 10565 10561 10556 10552 10547 10543 10538 10533
10629 10628 10628 10628 10627 10626 10626 10625 10624 10622 10621 10620 10619 10617 10615 10612 10610 10607 10605 10603 10601 10600 10598 10596 10593 10590 10587 10584 10580 10577 10574 10570 10566 10562 10558 10554 10550 10545 10540 10536 10531 10526
10623 10622 10622 10621 10621 10620 10619 10619 10617 10616 10615 10614 10613 10611 10609 10607 10604 10602 10600 10597 10596 10594 10592 10590 10587 10584 10581 10578 10575 10571 10568 10564 10560 10556 10552 10547 10543 10539 10534 10529 10525 10520
10617 10616 10616 10615 10614 10614 10613 10612 10611 10610 10609 10609 10608 10606 10604 10602 10599 10597 10595 10592 10590 10589 10587 10584 10581 10578 10575 10572 10569 10565 10561 10558 10554 10550 10545 10541 10536 10532 10528 10523 10518 10513
10612 10611 10610 10609 10608 10607 10607 10606 10605 10604 10603 10604 10603 10601 10599 10597 10595 10592 10590 10587 10585 10583 10581 10579 10576 10573 10570 10566 10563 10559 10556 10552 10548 10544 10539 10535 10531 10526 10521 10516 10511 10506
10607 10605 10604 10604 10603 10602 10601 10601 10600 10598 10598 10598 10597 10595 10594 10592 10590 10587 10584 10582 10579 10578 10576 10573 10570 10567 10564 10561 10557 10554 10550 10546 10542 10538 10534 10530 10525 10521 10516 10511 10506 10500
10601 10600 10599 10599 10598 10597 10597 10596 10595 10593 10593 10593 10592 10590 10589 10587 10585 10582 10579 10576 10574 10572 10570 10568 10565 10561 10558 10555 10552 10548 10545 10541 10537 10533 10529 10524 10520 10515 10510 10505 10500 10495
10597 10596 10595 10594 10594 10593 10592 10591 10590 10589 10588 10587 10586 10585 10583 10581 10579 10576 10573 10571 10568 10566 10565 10562 10559 10555 10552 10549 10546 10543 10539 10536 10532 10528 10524 10519 10515 10510 10505 10500 10495 10489
10592 10591 10590 10590 10589 10589 10587 10586 10585 10584 10583 10582 10581 10579 10578 10576 10573 10571 10568 10565 10563 10561 10559 10556 10553 10549 10546 10543 10540 10537 10534 10530 10527 10523 10518 10514 10510 10505 10500 10495 10489 10484
10588 10587 10586 10585 10584 10583 10582 10581 10581 10580 10578 10577 10576 10574 10572 10570 10568 10565 10562 10559 10557 10555 10553 10550 10547 10544 10541 10538 10535 10532 10529 10525 10521 10517 10513 10509 10504 10500 10495 10490 10484 10479
10584 10583 10581 10579 10577 10577 10577 10576 10575 10573 10572 10571 10570 10568 10566 10565 10562 10559 10556 10554 10551 10549 10547 10544 10541 10538 10535 10532 10530 10526 10523 10520 10516 10512 10508 10504 10499 10495 10490 10485 10479 10474
10580 10579 10577 10574 10571 10570 10571 10571 10569 10567 10566 10565 10564 10563 10561 10559 10557 10554 10550 10548 10545 10543 10541 10538 10535 10533 10530 10527 10524 10521 10518 10514 10510 10507 10503 10499 10494 10489 10485 10480 10475 10469
10576 10576 10573 10569 10566 10565 10565 10565 10564 10562 10560 10559 10558 10557 10555 10553 10551 10548 10545 10542 10540 10537 10535 10532 10530 10527 10525 10522 10519 10516 10512 10509 10505 10502 10498 10493 10489 10485 10480 10475 10470 10465
10573 10573 10570 10564 10560 10559 10559 10558 10558 10557 10555 10554 10552 10551 10549 10547 10545 10542 10539 10537 10534 10532 10529 10527 10524 10522 10519 10517 10514 10511 10507 10504 10500 10496 10493 10488 10484 10480 10475 10471 10466 10460